Somerville, NJ

2:38 AM EDT on May 24, 2017 (GMT -0400)
Somerset

Weather History for KSMQ - December, 2013

Change the Weather History Date:

Thursday, December 5, 2013

  Actual Average Record
Temperature  
Mean Temperature 50 °F -  
Max Temperature 55 °F 44 °F 71 °F (2001)
Min Temperature 46 °F 25 °F 11 °F (1935)
Degree Days  
Heating Degree Days 14    
Moisture  
Dew Point 49 °F    
Average Humidity 96    
Maximum Humidity 100    
Minimum Humidity 83    
Precipitation  
Precipitation 0.03 in - - ()
Sea Level Pressure  
Sea Level Pressure 30.02 in    
Wind  
Wind Speed 1 mph (NW)    
Max Wind Speed 5 mph    
Max Gust Speed -    
Visibility 1 miles    
Events Fog , Rain    
Averages and records for this station are not official NWS values.
T = Trace of Precipitation, MM = Missing Value Source: NWS Daily Summary

Daily Weather History Graph

Daily Weather History Graph

Search for Another Location

Airport or City:

Trip Planner

Search our weather history database for the weather conditions in past years. The results will help you decide how hot, cold, wet, or windy it might be!

Date:

Astronomy

Dec. 05, 2013 Rise Set
Actual Time 7:07 AM EST 4:31 PM EST
Civil Twilight 6:36 AM EST 5:02 PM EST
Nautical Twilight 6:02 AM EST 5:36 PM EST
Astronomical Twilight 5:29 AM EST 6:09 PM EST
Moon 9:25 AM EST (12/5) 7:49 PM EST (12/5)
Length of Visible Light 10h 25m
Length of Day
9h 24m
Waxing Crescent, 10% of the Moon is Illuminated
Dec 5
Waxing Crescent
Dec 9
First Quarter
Dec 17
Full
Dec 25
Last Quarter
Jan 1
New

Hourly Weather History & Observations

Time (EST) Temp. Windchill Dew Point Humidity Pressure Visibility Wind Dir Wind Speed Gust Speed Precip Events Conditions
12:53 AM 46.9 °F - 42.1 °F 83% 30.10 in 7.0 mi Calm Calm - N/A   Overcast
1:04 AM 48.0 °F - 43.0 °F 83% 30.09 in 7.0 mi Calm Calm - N/A   Overcast
1:53 AM 46.0 °F 43.9 °F 44.1 °F 93% 30.10 in 3.0 mi WNW 4.6 mph - 0.00 in Rain Light Rain
2:02 AM 46.0 °F 44.8 °F 44.1 °F 93% 30.10 in 1.8 mi NW 3.5 mph - 0.01 in Rain Light Rain
2:14 AM 46.0 °F 44.8 °F 45.0 °F 96% 30.10 in 1.2 mi NW 3.5 mph - 0.02 in Rain Light Rain
2:53 AM 46.0 °F 43.9 °F 44.1 °F 93% 30.11 in 1.2 mi NNE 4.6 mph - 0.03 in   Overcast
3:53 AM 46.0 °F 44.8 °F 45.0 °F 96% 30.09 in 1.2 mi North 3.5 mph - 0.00 in   Overcast
4:14 AM 46.0 °F 44.8 °F 45.0 °F 96% 30.08 in 2.5 mi Variable 3.5 mph - N/A   Overcast
4:35 AM 46.0 °F 44.8 °F 45.0 °F 96% 30.08 in 1.5 mi Variable 3.5 mph - N/A   Overcast
4:53 AM 46.0 °F 44.8 °F 45.0 °F 96% 30.08 in 1.0 mi North 3.5 mph - N/A   Overcast
5:00 AM 46.0 °F 44.8 °F 45.0 °F 96% 30.08 in 1.0 mi North 3.5 mph - N/A   Overcast
5:17 AM 46.0 °F - 45.0 °F 96% 30.08 in 0.8 mi Calm Calm - N/A   Overcast
5:53 AM 46.0 °F - 45.0 °F 96% 30.06 in 0.8 mi Calm Calm - N/A   Overcast
6:12 AM 46.0 °F 43.9 °F 45.0 °F 96% 30.07 in 1.0 mi WNW 4.6 mph - N/A   Overcast
6:53 AM 46.0 °F 44.8 °F 45.0 °F 96% 30.06 in 1.0 mi WNW 3.5 mph - N/A   Overcast
7:23 AM 46.0 °F - 46.0 °F 100% 30.07 in 0.8 mi Calm Calm - N/A   Overcast
7:53 AM 46.0 °F - 45.0 °F 96% 30.07 in 0.8 mi North - - N/A   Overcast
7:59 AM 46.0 °F 44.8 °F 45.0 °F 96% 30.06 in 1.0 mi NW 3.5 mph - N/A   Overcast
8:17 AM 46.0 °F - 46.0 °F 100% 30.07 in 0.8 mi Calm Calm - N/A   Overcast
8:30 AM 46.9 °F - 46.0 °F 97% 30.06 in 1.0 mi Calm Calm - N/A   Overcast
8:37 AM 46.9 °F - 46.0 °F 97% 30.07 in 0.8 mi Calm Calm - N/A   Overcast
8:53 AM 46.9 °F - 46.0 °F 97% 30.08 in 0.2 mi Calm Calm - N/A Fog Fog
9:53 AM 48.0 °F - 46.9 °F 96% 30.08 in 0.2 mi NW 3.5 mph - N/A Fog Fog
10:53 AM 48.9 °F - 48.0 °F 97% 30.07 in 0.2 mi Calm Calm - N/A Fog Fog
11:49 AM 50.0 °F - 48.2 °F 94% 30.02 in 0.5 mi Calm Calm - N/A Fog Fog
11:53 AM 50.0 °F - 50.0 °F 100% 30.02 in 0.5 mi Calm Calm - N/A Fog Fog
12:31 PM 52.0 °F - 51.1 °F 97% 30.00 in 1.0 mi Calm Calm - N/A   Overcast
12:40 PM 52.0 °F - 51.1 °F 97% 29.99 in 1.2 mi Calm Calm - N/A   Overcast
12:53 PM 52.0 °F - 51.1 °F 97% 29.99 in 1.5 mi Calm Calm - N/A   Overcast
1:53 PM 53.1 °F - 52.0 °F 96% 29.98 in 1.5 mi Calm Calm - N/A   Overcast
2:22 PM 53.1 °F - 52.0 °F 96% 29.97 in 0.8 mi Calm Calm - N/A   Overcast
2:34 PM 53.1 °F - 52.0 °F 96% 29.97 in 0.8 mi Calm Calm - N/A   Overcast
2:53 PM 53.1 °F - 52.0 °F 96% 29.98 in 0.8 mi Calm Calm - N/A   Overcast
3:17 PM 53.1 °F - 52.0 °F 96% 29.97 in 0.8 mi Calm Calm - N/A   Overcast
3:46 PM 54.0 °F - 53.1 °F 97% 29.97 in 0.8 mi Calm Calm - N/A   Overcast
3:53 PM 54.0 °F - 53.1 °F 97% 29.97 in 0.8 mi Calm Calm - N/A   Overcast
4:11 PM 53.1 °F - 53.1 °F 100% 29.96 in 0.2 mi Calm Calm - N/A Fog Fog
4:28 PM 53.1 °F - 52.0 °F 96% 29.97 in 0.5 mi South 3.5 mph - N/A Fog Fog
4:36 PM 53.1 °F - 52.0 °F 96% 29.97 in 1.0 mi Calm Calm - N/A   Overcast
4:43 PM 53.1 °F - 53.1 °F 100% 29.97 in 1.5 mi Calm Calm - N/A   Overcast
4:53 PM 54.0 °F - 52.0 °F 93% 29.99 in 1.8 mi NW 4.6 mph - N/A   Overcast
5:24 PM 54.0 °F - 53.1 °F 97% 30.00 in 2.0 mi WNW 3.5 mph - N/A   Overcast
5:38 PM 54.0 °F - 53.1 °F 97% 29.99 in 1.5 mi Calm Calm - N/A   Overcast
5:53 PM 53.1 °F - 52.0 °F 96% 29.99 in 0.8 mi Calm Calm - N/A   Overcast
6:35 PM 52.0 °F - 52.0 °F 100% 29.97 in 0.2 mi Calm Calm - N/A Fog Fog
6:51 PM 53.6 °F - 53.6 °F 100% 29.96 in 0.5 mi Calm Calm - N/A Fog Fog
6:53 PM 54.0 °F - 53.1 °F 97% 29.97 in 0.5 mi Calm Calm - N/A Fog Fog
7:27 PM 53.1 °F - 52.0 °F 96% 29.97 in 0.5 mi Calm Calm - N/A Fog Fog
7:35 PM 53.1 °F - 52.0 °F 96% 29.97 in 0.5 mi Calm Calm - N/A Fog Fog
7:53 PM 53.1 °F - 52.0 °F 96% 29.98 in 0.5 mi Calm Calm - N/A Fog Fog
8:24 PM 53.1 °F - 52.0 °F 96% 29.97 in 0.2 mi Calm Calm - N/A Fog Fog
8:53 PM 53.1 °F - 53.1 °F 100% 29.96 in 0.5 mi SSE 3.5 mph - N/A Fog Fog
9:00 PM 53.1 °F - 52.0 °F 96% 29.96 in 0.5 mi SE 3.5 mph - N/A Fog Fog
9:40 PM 55.0 °F - 54.0 °F 96% 29.95 in 0.5 mi Calm Calm - N/A Fog Fog
9:53 PM 55.0 °F - 54.0 °F 96% 29.95 in 0.8 mi SE 3.5 mph - N/A   Overcast
10:53 PM 55.9 °F - 55.0 °F 97% 29.93 in 0.5 mi Calm Calm - N/A Fog Fog
11:16 PM 55.9 °F - 55.0 °F 97% 29.93 in 0.2 mi Calm Calm - N/A Fog Fog
11:53 PM 55.0 °F - 55.0 °F 100% 29.93 in 0.2 mi Calm Calm - N/A Fog Fog